Kalispell, MT

11:15 PM MDT on June 24, 2017 (GMT -0600)
Glacier Park International

Weather History for KGPI - February, 2014

Change the Weather History Date:

Monday, February 3, 2014

  Actual Average Record
Temperature  
Mean Temperature 14 °F 26 °F  
Max Temperature 22 °F 34 °F 51 °F (2005)
Min Temperature 5 °F 18 °F -32 °F (1950)
Degree Days  
Heating Degree Days 51 39  
Month to date heating degree days 151 117  
Since 1 July heating degree days 4788 4908  
Cooling Degree Days 0 0  
Month to date cooling degree days 0 0  
Year to date cooling degree days 0 0  
Moisture  
Dew Point 1 °F    
Average Humidity 60    
Maximum Humidity 73    
Minimum Humidity 46    
Precipitation  
Precipitation T in 0.03 in 0.43 in (2017)
Month to date precipitation T 0.10  
Year to date precipitation 1.35 1.43  
Snow  
Snow T in - - ()
Month to date snowfall 0.3  
Year to date snowfall 15.9  
Since 1 July snowfall 49.4  
Snow Depth 4.00 in    
Sea Level Pressure  
Sea Level Pressure 30.18 in    
Wind  
Wind Speed 17 mph (NE)    
Max Wind Speed 33 mph    
Max Gust Speed 39 mph    
Visibility 10 miles    
Events      
T = Trace of Precipitation, MM = Missing Value Source: NWS Daily Summary

Daily Weather History Graph

Daily Weather History Graph

Search for Another Location

Airport or City:

Trip Planner

Search our weather history database for the weather conditions in past years. The results will help you decide how hot, cold, wet, or windy it might be!

Date:

Astronomy

Feb. 03, 2014 Rise Set
Actual Time 8:02 AM MST 5:39 PM MST
Civil Twilight 7:29 AM MST 6:13 PM MST
Nautical Twilight 6:52 AM MST 6:50 PM MST
Astronomical Twilight 6:15 AM MST 7:26 PM MST
Moon 9:42 AM MST (2/3) 11:01 PM MST (2/3)
Length of Visible Light 10h 43m
Length of Day
9h 37m
Waxing Crescent, 20% of the Moon is Illuminated
Feb 3
Waxing Crescent
Feb 6
First Quarter
Feb 14
Full
Feb 22
Last Quarter
Mar 1
New

Hourly Weather History & Observations

Time (MST) Temp. Windchill Dew Point Humidity Pressure Visibility Wind Dir Wind Speed Gust Speed Precip Events Conditions
12:55 AM 21.0 °F 5.0 °F 12.9 °F 71% 29.96 in 7.0 mi NNE 21.9 mph 32.2 mph N/A   Overcast
1:55 AM 19.9 °F 2.5 °F 12.0 °F 71% 29.96 in 7.0 mi NNE 25.3 mph 33.4 mph 0.00 in   Overcast
2:55 AM 19.9 °F 2.5 °F 10.0 °F 65% 29.97 in 10.0 mi NNE 25.3 mph 32.2 mph N/A   Overcast
3:55 AM 19.0 °F 1.6 °F 9.0 °F 65% 29.99 in 10.0 mi NNE 24.2 mph 35.7 mph N/A   Overcast
4:55 AM 18.0 °F 0.9 °F 8.1 °F 65% 30.02 in 10.0 mi NE 21.9 mph 31.1 mph N/A   Overcast
5:55 AM 17.1 °F 1.0 °F 7.0 °F 65% 30.04 in 10.0 mi NE 18.4 mph 25.3 mph N/A   Overcast
6:55 AM 17.1 °F 1.0 °F 5.0 °F 59% 30.06 in 10.0 mi NNE 18.4 mph 26.5 mph N/A   Overcast
7:55 AM 17.1 °F 1.0 °F 3.0 °F 54% 30.10 in 10.0 mi NE 18.4 mph - N/A   Overcast
8:55 AM 17.1 °F 1.5 °F 1.9 °F 52% 30.13 in 10.0 mi NE 17.3 mph 24.2 mph N/A   Overcast
9:55 AM 17.1 °F 3.6 °F 1.0 °F 50% 30.16 in 10.0 mi NE 12.7 mph 19.6 mph N/A   Overcast
10:55 AM 17.1 °F 3.6 °F -0.0 °F 47% 30.19 in 10.0 mi ENE 12.7 mph 21.9 mph N/A   Overcast
11:55 AM 17.1 °F 3.6 °F -0.0 °F 47% 30.19 in 10.0 mi NE 12.7 mph 26.5 mph N/A   Overcast
12:55 PM 17.1 °F 1.5 °F 1.0 °F 50% 30.19 in 10.0 mi NE 17.3 mph 26.5 mph N/A   Overcast
1:55 PM 17.1 °F 0.1 °F -0.0 °F 47% 30.19 in 10.0 mi NE 20.7 mph - N/A   Overcast
2:55 PM 17.1 °F 1.5 °F -0.9 °F 45% 30.21 in 10.0 mi NE 17.3 mph - N/A   Mostly Cloudy
3:55 PM 16.0 °F 3.6 °F -2.0 °F 45% 30.23 in 10.0 mi ENE 10.4 mph 21.9 mph N/A   Overcast
4:55 PM 15.1 °F 3.3 °F -2.0 °F 47% 30.25 in 10.0 mi NE 9.2 mph - N/A   Overcast
5:55 PM 12.9 °F 1.6 °F -4.0 °F 47% 30.28 in 10.0 mi ENE 8.1 mph - N/A   Overcast
6:55 PM 10.9 °F -1.8 °F -5.1 °F 49% 30.31 in 10.0 mi NE 9.2 mph - N/A   Overcast
7:55 PM 10.9 °F -5.4 °F -6.0 °F 47% 30.32 in 10.0 mi NE 15.0 mph 19.6 mph N/A   Overcast
8:55 PM 9.0 °F -11.4 °F -5.1 °F 53% 30.35 in 10.0 mi NNE 23.0 mph 28.8 mph N/A   Partly Cloudy
9:55 PM 8.1 °F -11.7 °F -6.0 °F 53% 30.38 in 10.0 mi NNE 20.7 mph - N/A   Overcast
10:55 PM 7.0 °F -10.4 °F -9.0 °F 48% 30.41 in 10.0 mi NE 15.0 mph 25.3 mph N/A   Mostly Cloudy
11:55 PM 6.1 °F -13.3 °F -9.9 °F 48% 30.42 in 10.0 mi NNE 18.4 mph - N/A   Partly Cloudy